Total_Precipitation_Accumulation
0.17 0.25 0.63 0.83 0.83 0.74 0.68 0.61 0.56 0.55 0.51 0.49 0.49 0.48 0.45 0.43 0.40 0.39 0.42 0.46 0.52 0.62 0.73 0.79 0.84 0.88 0.81 0.62 0.45 0.33 0.33 0.35 0.29 0.25 0.24 0.29 0.36 0.38 0.33 0.32 0.33 0.40 0.57
0.19 0.28 0.59 0.83 0.93 0.89 0.79 0.70 0.59 0.53 0.51 0.54 0.55 0.57 0.55 0.49 0.48 0.49 0.53 0.57 0.67 0.77 0.86 0.87 0.83 0.84 0.76 0.60 0.43 0.28 0.21 0.17 0.11 0.07 0.07 0.11 0.23 0.33 0.32 0.30 0.31 0.46 0.53
0.21 0.30 0.55 0.82 0.98 0.98 0.91 0.80 0.71 0.66 0.62 0.65 0.68 0.70 0.67 0.64 0.63 0.64 0.67 0.70 0.78 0.85 0.83 0.85 0.79 0.74 0.66 0.55 0.39 0.29 0.19 0.15 0.10 0.06 0.08 0.13 0.25 0.38 0.35 0.33 0.39 0.50 0.52
0.25 0.35 0.54 0.84 1.06 1.09 1.02 0.93 0.86 0.87 0.81 0.78 0.82 0.83 0.81 0.81 0.78 0.76 0.78 0.79 0.80 0.80 0.76 0.72 0.61 0.53 0.44 0.39 0.33 0.28 0.21 0.16 0.11 0.09 0.15 0.19 0.26 0.51 0.52 0.49 0.50 0.50 0.50
0.40 0.49 0.71 0.95 1.14 1.21 1.11 1.09 1.05 1.06 1.03 0.99 0.93 0.94 0.95 0.92 0.87 0.83 0.81 0.83 0.78 0.72 0.65 0.59 0.47 0.36 0.31 0.27 0.26 0.25 0.19 0.14 0.11 0.13 0.18 0.22 0.32 0.62 0.59 0.57 0.53 0.47 0.50
0.56 0.66 0.89 1.10 1.26 1.31 1.19 1.16 1.17 1.18 1.21 1.18 1.06 1.01 1.03 1.02 0.93 0.83 0.79 0.74 0.67 0.62 0.58 0.49 0.40 0.32 0.28 0.27 0.25 0.23 0.20 0.12 0.09 0.13 0.18 0.24 0.32 0.56 0.50 0.46 0.46 0.48 0.50
0.79 0.89 1.07 1.32 1.54 1.57 1.46 1.38 1.33 1.29 1.29 1.31 1.21 1.11 1.14 1.16 1.12 0.94 0.79 0.68 0.59 0.55 0.50 0.45 0.38 0.34 0.31 0.28 0.28 0.22 0.17 0.11 0.12 0.14 0.17 0.25 0.40 0.61 0.54 0.47 0.45 0.46 0.49
0.99 1.12 1.33 1.58 1.70 1.81 1.73 1.63 1.57 1.50 1.39 1.36 1.36 1.30 1.25 1.28 1.28 1.06 0.81 0.68 0.63 0.59 0.52 0.47 0.44 0.37 0.34 0.29 0.27 0.21 0.15 0.10 0.12 0.14 0.16 0.22 0.41 0.62 0.59 0.52 0.46 0.43 0.44
1.30 1.46 1.59 1.74 1.85 2.05 1.92 1.74 1.71 1.66 1.56 1.47 1.45 1.39 1.29 1.28 1.23 1.06 0.84 0.74 0.70 0.65 0.57 0.50 0.50 0.45 0.38 0.33 0.27 0.20 0.15 0.10 0.09 0.12 0.13 0.19 0.37 0.56 0.57 0.56 0.51 0.47 0.43
1.63 1.79 1.87 1.96 2.01 2.18 2.13 1.89 1.70 1.56 1.52 1.55 1.47 1.28 1.07 1.06 1.10 1.04 0.78 0.73 0.72 0.65 0.58 0.54 0.52 0.48 0.41 0.31 0.25 0.20 0.16 0.15 0.12 0.11 0.14 0.19 0.36 0.52 0.52 0.57 0.57 0.53 0.49
2.03 2.10 2.14 2.14 2.10 2.18 2.24 2.04 1.91 1.73 1.61 1.56 1.50 1.26 1.10 1.12 1.08 0.98 0.75 0.58 0.64 0.62 0.60 0.61 0.59 0.52 0.42 0.32 0.24 0.18 0.15 0.18 0.16 0.15 0.16 0.24 0.39 0.53 0.56 0.57 0.56 0.55 0.48
2.15 2.22 2.32 2.26 2.23 2.29 2.31 2.23 2.19 1.99 1.80 1.66 1.51 1.38 1.26 1.15 1.12 0.99 0.89 0.66 0.62 0.62 0.63 0.66 0.61 0.58 0.47 0.35 0.27 0.22 0.19 0.17 0.19 0.17 0.19 0.30 0.46 0.56 0.56 0.53 0.51 0.53 0.52
2.32 2.40 2.48 2.42 2.45 2.43 2.38 2.26 2.19 2.04 1.96 1.86 1.73 1.51 1.43 1.36 1.24 1.22 1.07 0.95 0.86 0.71 0.69 0.65 0.62 0.56 0.47 0.39 0.34 0.27 0.23 0.23 0.21 0.20 0.22 0.29 0.45 0.56 0.59 0.59 0.56 0.54 0.61
2.55 2.67 2.69 2.64 2.67 2.63 2.54 2.34 2.11 1.92 1.84 1.83 1.75 1.72 1.62 1.52 1.37 1.23 1.10 0.97 0.92 0.81 0.72 0.65 0.57 0.51 0.47 0.45 0.44 0.36 0.29 0.24 0.22 0.24 0.23 0.24 0.34 0.51 0.60 0.63 0.64 0.65 0.70
2.82 2.87 2.94 2.89 2.79 2.68 2.67 2.57 2.19 1.90 1.70 1.70 1.73 1.73 1.70 1.53 1.37 1.29 1.17 1.11 1.01 0.88 0.83 0.78 0.68 0.58 0.51 0.49 0.46 0.40 0.36 0.30 0.27 0.29 0.27 0.24 0.24 0.38 0.57 0.62 0.67 0.73 0.81
3.00 3.13 3.25 3.14 2.99 2.73 2.56 2.56 2.37 2.06 1.82 1.72 1.67 1.66 1.74 1.67 1.53 1.47 1.27 1.22 1.15 1.06 0.99 0.95 0.88 0.83 0.72 0.64 0.54 0.46 0.43 0.38 0.36 0.38 0.37 0.31 0.26 0.27 0.43 0.64 0.83 0.92 0.99
3.09 3.33 3.42 3.41 3.27 2.94 2.66 2.60 2.48 2.28 2.08 1.88 1.60 1.56 1.63 1.72 1.77 1.74 1.47 1.33 1.25 1.22 1.24 1.18 1.09 1.03 0.94 0.80 0.67 0.60 0.52 0.44 0.38 0.38 0.36 0.34 0.30 0.26 0.30 0.49 0.74 0.90 1.00
3.16 3.36 3.46 3.48 3.43 3.23 2.89 2.76 2.67 2.46 2.28 2.11 1.86 1.67 1.61 1.67 1.84 1.94 1.64 1.41 1.31 1.30 1.29 1.23 1.16 1.07 0.95 0.88 0.81 0.71 0.62 0.53 0.45 0.39 0.36 0.33 0.31 0.27 0.25 0.31 0.47 0.69 0.85
2.99 3.26 3.54 3.52 3.44 3.37 3.23 3.11 2.99 2.83 2.58 2.34 2.05 1.82 1.79 1.81 1.90 2.07 1.79 1.51 1.44 1.40 1.30 1.29 1.25 1.18 1.06 0.96 0.91 0.85 0.75 0.65 0.55 0.47 0.39 0.33 0.30 0.28 0.26 0.26 0.29 0.38 0.55
2.80 3.12 3.34 3.64 3.63 3.67 3.67 3.53 3.39 3.26 3.01 2.69 2.31 2.00 1.93 1.92 1.93 2.11 2.04 1.77 1.67 1.57 1.42 1.30 1.27 1.28 1.27 1.20 1.09 0.99 0.89 0.78 0.68 0.56 0.46 0.39 0.32 0.28 0.27 0.27 0.27 0.29 0.36
2.55 2.87 3.03 3.28 3.56 3.66 3.61 3.38 3.21 3.09 3.13 2.99 2.65 2.34 2.26 2.14 2.01 2.05 2.12 2.03 1.83 1.69 1.56 1.45 1.38 1.34 1.36 1.41 1.41 1.26 1.10 0.96 0.79 0.66 0.56 0.48 0.41 0.35 0.33 0.33 0.35 0.35 0.35
2.27 2.45 2.76 2.89 3.24 3.36 3.27 3.26 3.18 3.17 3.18 3.17 2.99 2.72 2.58 2.45 2.27 2.15 2.10 2.10 1.99 1.84 1.78 1.74 1.62 1.53 1.45 1.42 1.44 1.45 1.35 1.27 1.02 0.76 0.65 0.60 0.53 0.49 0.45 0.42 0.41 0.43 0.43
2.01 2.28 2.40 2.55 2.82 3.15 3.27 3.45 3.60 3.60 3.39 3.21 3.08 2.99 2.81 2.73 2.59 2.36 2.22 2.21 2.17 2.01 1.86 1.84 1.83 1.78 1.73 1.68 1.56 1.63 1.52 1.28 1.08 0.89 0.73 0.66 0.62 0.61 0.57 0.53 0.49 0.49 0.50
1.66 2.05 2.35 2.56 2.73 2.93 3.33 3.40 3.34 3.23 3.00 2.78 2.84 2.94 2.94 2.85 2.79 2.62 2.50 2.44 2.34 2.18 2.05 2.02 2.00 2.03 2.02 1.95 1.83 1.65 1.49 1.28 1.23 1.09 0.85 0.73 0.68 0.62 0.60 0.59 0.55 0.50 0.50
1.41 1.78 2.14 2.40 2.74 2.97 3.13 3.24 3.31 3.12 2.85 2.80 2.82 2.86 2.80 2.74 2.72 2.70 2.63 2.67 2.57 2.40 2.28 2.25 2.22 2.23 2.23 2.15 2.01 1.86 1.74 1.53 1.34 1.27 1.07 0.86 0.82 0.74 0.65 0.61 0.60 0.61 0.62
1.28 1.50 1.87 2.14 2.30 2.61 2.91 3.00 3.06 3.05 2.97 2.88 2.75 2.72 2.75 2.73 2.69 2.66 2.69 2.69 2.67 2.61 2.47 2.40 2.33 2.31 2.30 2.25 2.18 2.01 1.89 1.78 1.57 1.49 1.34 1.09 1.04 0.94 0.82 0.75 0.71 0.69 0.70